Terug naar catalogus

STARLINK-2755

ActiefCommunicatieVLEO
NORAD 48479·PAYLOAD·🇺🇸 United States

Gelanceerd May 9, 2021 vanaf Cape Canaveral Space Force Station

Loading…

Volgende Passages (komende 24 uur)

TLE

VersSource: CelesTrak SupGP

Epoch: Sep 14, 2026, 20:49 UTC

1 48479C 21040BD  26257.86784722  .00040834  00000+0  13131-2 0  2571
2 48479  53.1605  30.9965 0001175  82.2332  92.7390 15.31681479    16

Volg STARLINK-2755 in realtime met AllMySat

Download on the App Store